Regional Weather Roundup
Issued by NWS

Home | Current Version | Previous Version | Text Only | Print | Product List | Glossary On
Versions: 1 2 3 4 5 6 7 8 9 10 11 12 13 14 15 16 17 18 19 20 21 22 23 24 25 26 27 28 29 30 31 32 33 34 35 36 37 38 39 40 41 42 43 44 45 46 47 48 49
000
ASUS42 KFFC 011103
RWRGA
WEATHER ROUNDUP FOR GEORGIA
NATIONAL WEATHER SERVICE PEACHTREE CITY GA
700 AM EDT WED OCT 01 2014

NOTE: "FAIR" INDICATES FEW OR NO CLOUDS BELOW 12,000 FEET WITH NO
SIGNIFICANT WEATHER AND/OR OBSTRUCTIONS TO VISIBILITY.

* = USE WITH CAUTION. THE STATIONS MARKED WITH AN ASTERISK MAY NOT
REPORT WEATHER SUCH AS PRECIPITATION, FOG, OR THUNDER AND ARE NOT
QUALITY CONTROLLED BY NWS.

THE REMARK "TC" DENOTES TEMPERATURE READING IN DEGREES CELSIUS.

GAZ001>058-011200-
NORTH GEORGIA

CITY           SKY/WX    TMP DP  RH WIND       PRES   REMARKS
ATLANTA        PTCLDY    65  63  93 W6        29.97R
ATHENS         CLEAR     59  58  96 CALM      29.97R
CHAMBLEE       CLEAR     60  58  92 CALM      29.97R
PEACHTREE CITY CLOUDY    58  57  97 CALM      29.98R
ROME           PTCLDY    56  55  97 CALM      29.97R FOG
WEST ATLANTA   CLEAR     58  56  93 CALM      29.97R
GAINESVILLE    PTCLDY    62  59  90 CALM      30.00R
CARTERSVILLE   FOG       56  55  97 CALM      29.98R VSB 1/4


CITY           SKY/WX    TMP DP  RH WIND       PRES   REMARKS
DALTON*        FOG       55  55 100 CALM      29.98R VSB 1
LAWRENCEVILLE* CLEAR     57  54  88 CALM      29.97
MARIETTA       PTCLDY    60  60  99 CALM      29.98R
KENNESAW*      PTCLDY    57  54  88 CALM      29.99
$$

GAZ059>098-102>109-011200-
CENTRAL GEORGIA

CITY           SKY/WX    TMP DP  RH WIND       PRES   REMARKS
AUGUSTA-BUSH   CLEAR     57  56  96 CALM      29.95R
AUGUSTA-DANIEL CLEAR     65  62  90 NW3       29.96R
COLUMBUS       CLEAR     63  61  93 CALM      29.96R
MACON          CLEAR     58  58 100 CALM      29.96R FOG
ROBINS AFB     FOG       62  62  99 N2        29.96R VSB 3/4


CITY           SKY/WX    TMP DP  RH WIND       PRES   REMARKS
LAGRANGE*      FOG       62  61  99 CALM      29.97R VSB 1/2
SYLVANIA*      CLEAR     63  63  99 CALM      29.95R
MILLEDGEVILLE* FOG       63  63 100 CALM      29.97R VSB 1/4
$$

GAZ099>101-110>166-011200-
SOUTH GEORGIA

CITY           SKY/WX    TMP DP  RH WIND       PRES   REMARKS
SAVANNAH       PTCLDY    65  62  90 CALM      29.94
VALDOSTA       CLOUDY    72  68  87 CALM      29.94R
ALMA           CLOUDY    67  66  97 CALM      29.94R
ST SIMONS      CLOUDY    70  67  90 N3        29.93R
FT STEWART     CLEAR     62  61  95 CALM      29.93R
ALBANY         MOCLDY    65  64  97 CALM      29.97R
HUNTER AFB     FOG       64  64 100 CALM      29.92R VSB 1/2
MOODY AFB      CLOUDY    71  68  90 NE2       29.94R
BRUNSWICK      CLOUDY    68  66  94 CALM      29.94R


CITY           SKY/WX    TMP DP  RH WIND       PRES   REMARKS
BAINBRIDGE*    CLOUDY    68  68 100 CALM      29.95R
MOULTRIE*      CLOUDY    68  68 100 CALM      29.95R
VIDALIA*       CLEAR     64  64 100 CALM      29.96R
WAYCROSS*      CLOUDY    71  71 100 CALM      29.94R
DOUGLAS*       MOCLDY    68  68 100 CALM      29.96R
$$



USA.gov is the U.S. government's official web portal to all federal, state and local government web resources and services.